This is the latest recevied weather packets stored in our database for station/object WZ9ZZZ-1. If no packets are shown the sender has not sent any weather packets the latest 10 day(s).
| Time | Temp. | Humidity | Pressure | Rain* | Wind** | Luminosity | Snow |
|---|---|---|---|---|---|---|---|
| 1777837936 | 27.78° C | 40% | 1024.7 hPa | 0 mm | - | 710 W/m² | - |
| 1777837634 | 26.67° C | 42% | 1024.5 hPa | 0 mm | - | 707 W/m² | - |
| 1777837329 | 26.67° C | 43% | 1024.6 hPa | 0 mm | - | 701 W/m² | - |
| 1777837026 | 26.67° C | 42% | 1024.8 hPa | 0 mm | - | 704 W/m² | - |
| 1777836722 | 27.22° C | 43% | 1024.8 hPa | 0 mm | - | 708 W/m² | - |
| 1777836417 | 27.22° C | 42% | 1024.8 hPa | 0 mm | - | 724 W/m² | - |
| 1777836113 | 27.22° C | 43% | 1024.8 hPa | 0 mm | - | 730 W/m² | - |
| 1777835810 | 26.67° C | 40% | 1025.1 hPa | 0 mm | - | 730 W/m² | - |
| 1777835507 | 26.67° C | 42% | 1025.2 hPa | 0 mm | - | 721 W/m² | - |
| 1777835204 | 26.11° C | 42% | 1025.6 hPa | 0 mm | - | 721 W/m² | - |
| 1777834901 | 26.67° C | 42% | 1025.3 hPa | 0 mm | - | 741 W/m² | - |
| 1777834597 | 26.67° C | 45% | 1025.5 hPa | 0 mm | - | 732 W/m² | - |
| 1777834292 | 27.78° C | 42% | 1025.3 hPa | 0 mm | - | 743 W/m² | - |
| 1777833988 | 27.22° C | 40% | 1025.4 hPa | 0 mm | - | 754 W/m² | - |
| 1777833685 | 27.22° C | 40% | 1025.3 hPa | 0 mm | - | 751 W/m² | - |
| 1777833381 | 27.22° C | 38% | 1025.5 hPa | 0 mm | - | 750 W/m² | - |
| 1777833078 | 26.67° C | 41% | 1025.6 hPa | 0 mm | - | 753 W/m² | - |
| 1777832777 | 27.22° C | 40% | 1025.4 hPa | 0 mm | - | 739 W/m² | - |
| 1777832474 | 27.22° C | 39% | 1025.7 hPa | 0 mm | - | 744 W/m² | - |
| 1777832171 | 27.22° C | 37% | 1025.8 hPa | 0 mm | - | 745 W/m² | - |
| 1777831868 | 26.11° C | 41% | 1025.9 hPa | 0 mm | - | 727 W/m² | - |
| 1777831565 | 27.78° C | 39% | 1026 hPa | 0 mm | - | 728 W/m² | - |
| 1777831263 | 27.22° C | 38% | 1025.8 hPa | 0 mm | - | 754 W/m² | - |
| 1777830959 | 27.78° C | 37% | 1026 hPa | 0 mm | - | 751 W/m² | - |
| 1777830657 | 27.22° C | 38% | 1026.3 hPa | 0 mm | - | 749 W/m² | - |
* Rain latest hour (hover to see other rain measurements)
** Current wind speed in m/s (hover to see current wind gust speed)